Location: Austin, TX
(30.3000°N, 97.7500°W)
Time: 17:27:16
(UTC-06:00)

Cosmos 1666 - Visible Passes

Search period start: 17 December 2017 00:00
Search period end: 27 December 2017 00:00
Orbit: 499 x 525 km, 82.5° (Epoch: 16 December)

Date Brightness Start Highest point End Pass type
(mag) Time Alt. Az. Time Alt. Az. Time Alt. Az.
17 Dec 2.7 06:31:38 10° S 06:35:28 84° E 06:39:17 10° N visible
17 Dec 3.4 18:07:39 10° NNW 18:11:20 57° W 18:14:59 10° S visible
18 Dec 3.2 06:15:35 10° S 06:19:21 62° E 06:23:07 10° NNE visible
19 Dec 3.8 05:59:34 10° SSE 06:03:14 46° E 06:06:54 10° NNE visible
20 Dec 4.4 05:43:39 10° SSE 05:47:09 35° E 05:50:38 10° NNE visible
21 Dec 4.8 05:27:49 10° SSE 05:31:03 27° E 05:34:17 10° NNE visible
22 Dec 5.3 05:12:04 10° SE 05:14:58 21° E 05:17:50 10° NE visible
22 Dec 4.2 06:48:01 10° WSW 06:50:28 16° WNW 06:52:55 10° NW visible
23 Dec 5.6 04:56:29 10° SE 04:58:52 16° E 05:01:16 10° NE visible
23 Dec 3.9 06:31:22 10° SW 06:34:17 21° W 06:37:12 10° NNW visible
23 Dec 5.9 18:08:05 10° WNW 18:09:47 13° W 18:11:29 10° WSW visible
24 Dec 5.9 04:41:10 10° ESE 04:42:48 12° E 04:44:26 10° ENE visible
24 Dec 3.6 06:14:52 10° SW 06:18:07 27° W 06:19:48 19° NW visible
25 Dec 4.4 05:58:27 10° SSW 05:59:48 19° SW 05:59:48 19° SW visible
